Flag for China Weather past 2 weeks in Suzhou, Jiangsu, China

43 °F


Feels Like: 41 °F
Forecast: 38 / 51 °F
Wind: 3 mph from Southeast

Location: Shanghai Hongqiao Airport

Current Time: Nov 28, 2015 at 2:24:24 AM

Latest Report: Nov 28, 2015 at 2:00 AM

Visibility: 10 mi

Pressure: 30.39 "Hg

Humidity: 49%

Dew point: 25 °F

Location of SuzhouLocation

Historic Weather in Suzhou — Graph


Suzhou temperature yesterday

Maximum temperature yesterday: 45 °F (at 1:30 PM)
Minimum temperature yesterday: 28 °F (at 3:30 AM)
Average temperature yesterday: 37 °F

Past Weeks' High & Low Weather Summary

High68 °F (Nov 15, 1:00 PM)100% (Nov 13, 2:00 AM)30.48 "Hg (Nov 13, 2:00 AM)
Low28 °F (Nov 27, 3:30 AM)29% (Nov 27, 4:00 PM)29.92 "Hg (Nov 16, 3:00 AM)
Average56 °F81%30.18 "Hg
* Reported Nov 13 1:00 AM — Nov 28 1:00 AM, Suzhou, Weather by CustomWeather, © 2015

Note: Actual official high and low records may vary slightly from our data, if they occured in-between our weather recording intervals... More about our weather records


Suzhou weather history for previous 24 hours

Time TempWeatherWind HumidityBarometerVisibility
1:00 AM
Sat, Nov 28
43 °FPassing clouds.3 mph46%30.39 "HgN/A
12:30 AM43 °FClear.1 mph49%30.39 "Hg10 mi
12:00 AM43 °FPassing clouds.3 mph46%30.39 "HgN/A
11:30 PM
Fri, Nov 27
43 °FPassing clouds.3 mph46%30.39 "HgN/A
11:00 PM43 °FPassing clouds.3 mph42%30.39 "HgN/A
10:30 PM43 °FClear.1 mph46%30.39 "Hg10 mi
10:00 PM43 °FClear.1 mph46%30.42 "Hg10 mi
9:30 PM41 °FClear.1 mph49%30.42 "Hg10 mi
9:00 PM41 °FClear.No wind49%30.42 "Hg10 mi
8:30 PM41 °FClear.1 mph49%30.42 "Hg10 mi
8:00 PM39 °FClear.3 mph52%30.39 "Hg10 mi
7:30 PM41 °FClear.1 mph45%30.39 "Hg10 mi
7:00 PM41 °FClear.1 mph42%30.39 "Hg10 mi
6:30 PM43 °FPassing clouds.3 mph39%30.39 "HgN/A
6:00 PM43 °FPassing clouds.3 mph39%30.39 "HgN/A
5:30 PM43 °FPassing clouds.3 mph39%30.39 "HgN/A
5:00 PM43 °FPassing clouds.6 mph34%30.39 "HgN/A
4:30 PM43 °FPassing clouds.6 mph31%30.36 "HgN/A
4:00 PM45 °FPassing clouds.6 mph29%30.36 "HgN/A
2:30 PM45 °FSunny.3 mph31%30.39 "Hg10 mi
2:00 PM45 °FSunny.3 mph34%30.39 "Hg10 mi
1:30 PM45 °FSunny.6 mph31%30.39 "Hg10 mi
1:00 PM43 °FSunny.1 mph31%30.39 "Hg10 mi
12:00 PM41 °FPassing clouds.3 mph36%30.42 "HgN/A
11:30 AM39 °FPassing clouds.3 mph36%30.45 "HgN/A
11:00 AM39 °FPassing clouds.6 mph48%30.45 "HgN/A
10:30 AM39 °FSunny.3 mph48%30.48 "Hg10 mi
10:00 AM37 °FPassing clouds.3 mph52%30.48 "HgN/A
9:30 AM36 °FPassing clouds.3 mph52%30.48 "HgN/A
9:00 AM36 °FPassing clouds.3 mph52%30.48 "HgN/A
8:30 AM34 °FPassing clouds.3 mph56%30.48 "HgN/A
8:00 AM32 °FSunny.6 mph60%30.48 "Hg10 mi
7:30 AM30 °FPassing clouds.6 mph64%30.48 "HgN/A
6:30 AM28 °FClear.8 mph69%30.45 "Hg10 mi
6:00 AM28 °FClear.6 mph69%30.45 "Hg10 mi
5:30 AM28 °FPassing clouds.6 mph69%30.45 "HgN/A
5:00 AM30 °FClear.8 mph64%30.45 "Hg10 mi
4:30 AM28 °FClear.8 mph69%30.45 "Hg10 mi
4:00 AM28 °FClear.8 mph69%30.45 "Hg10 mi
3:30 AM28 °FPassing clouds.6 mph69%30.45 "HgN/A
3:00 AM30 °FClear.10 mph59%30.45 "Hg10 mi
2:30 AM30 °FPassing clouds.8 mph59%30.45 "HgN/A
2:00 AM30 °FClear.10 mph59%30.45 "Hg10 mi
Weather by CustomWeather, © 2015

See weather overviewHow to use our weather pages